Flag for U.S.A. Weather past 2 weeks in Bloomington, Illinois, U.S.A.

Now
59 °F

Sunny.


Feels Like: 56 °F
Forecast: 38 / 58 °F
Wind: 18 mph from Northeast

Location: Bloomington / Normal

Current Time: Apr 26, 2015 at 5:57:56 PM

Latest Report: Apr 26, 2015 at 4:56 PM


Visibility: 10 mi

Pressure: 29.98 "Hg

Humidity: 41%

Dew point: 35 °F

Location of BloomingtonLocation

Historic Weather in Bloomington — Graph

°F

Bloomington temperature yesterday

Maximum temperature yesterday: 53 °F (at 12:56 AM)
Minimum temperature yesterday: 45 °F (at 9:58 PM)
Average temperature yesterday: 48 °F

Past Weeks' High & Low Weather Summary

 TemperatureHumidityPressure
High80 °F (Apr 18, 2:56 PM)100% (Apr 16, 6:56 AM)30.29 "Hg (Apr 16, 6:56 AM)
Low34 °F (Apr 23, 4:56 AM)18% (Apr 23, 5:56 PM)29.34 "Hg (Apr 20, 2:56 AM)
Average54 °F61%29.95 "Hg
* Reported Apr 11 4:56 PM — Apr 26 4:56 PM, Bloomington, Weather by CustomWeather, © 2015

Note: Actual official high and low records may vary slightly from our data, if they occured in-between our weather recording intervals... More about our weather records

Advertising

Bloomington weather history for previous 24 hours

 ConditionsComfort  
Time TempWeatherWind HumidityBarometerVisibility
4:56 PM
Sun, Apr 26
59 °FSunny.18 mph41%29.98 "Hg10 mi
3:56 PM58 °FSunny.16 mph44%29.99 "Hg10 mi
2:56 PM58 °FPassing clouds.21 mph46%30.00 "Hg10 mi
1:56 PM57 °FScattered clouds.14 mph51%30.01 "Hg10 mi
12:56 PM55 °FSunny.14 mph53%30.01 "Hg10 mi
11:56 AM54 °FPassing clouds.16 mph53%30.02 "Hg10 mi
10:56 AM52 °FSunny.17 mph57%30.02 "Hg10 mi
9:56 AM49 °FSunny.16 mph63%30.01 "Hg10 mi
8:56 AM45 °FSunny.17 mph73%29.99 "Hg10 mi
7:56 AM40 °FSunny.12 mph82%29.98 "Hg10 mi
6:56 AM37 °FClear.8 mph85%29.96 "Hg10 mi
5:56 AM37 °FClear.7 mph82%29.94 "Hg10 mi
4:56 AM38 °FClear.8 mph82%29.91 "Hg10 mi
3:56 AM38 °FClear.12 mph89%29.90 "Hg10 mi
2:56 AM40 °FClear.14 mph89%29.88 "Hg10 mi
1:56 AM41 °FPassing clouds.10 mph92%29.88 "Hg7 mi
12:56 AM43 °FPassing clouds.15 mph93%29.86 "Hg7 mi
11:56 PM
Sat, Apr 25
45 °FOvercast.14 mph89%29.83 "Hg7 mi
10:56 PM45 °FOvercast.17 mph93%29.82 "Hg7 mi
9:58 PM45 °FMostly cloudy.16 mph93%29.78 "Hg9 mi
8:56 PM46 °FMostly cloudy.23 mph90%29.77 "Hg10 mi
7:56 PM45 °FLow clouds.21 mph96%29.75 "Hg8 mi
6:56 PM46 °FLight rain. Fog.17 mph97%29.72 "Hg4 mi
5:56 PM47 °FLow clouds.22 mph93%29.70 "Hg10 mi
Weather by CustomWeather, © 2015

See weather overviewHow to use our weather pages